Regional Weather Roundup
Issued by NWS

Home | Current Version | Previous Version | Text Only | Print | Product List | Glossary On
Versions: 1 2 3 4 5 6 7 8 9 10 11 12 13 14 15 16 17 18 19 20 21 22 23 24 25 26 27 28 29 30 31 32 33 34 35 36 37 38 39 40 41 42 43 44 45 46 47 48 49 50
000
ASHW40 PHFO 211743
RWRHI

WEATHER ROUNDUP FOR HAWAII
NATIONAL WEATHER SERVICE HONOLULU HI
700 AM HST SAT OCT 21 2017

THIS IS AN AUTOMATED REPORT THAT HAS NOT BEEN QUALITY CONTROLLED.

NOTE..."FAIR" INDICATES FEW OR NO CLOUDS BELOW 12,000 FEET WITH NO
SIGNIFICANT WEATHER AND/OR OBSTRUCTIONS TO VISIBILITY.

* - THESE SITES REPORT LIMITED FIELDS
# - BUOY DATA PROVIDED BY PACIFIC ISLANDS OCEAN OBSERVING SYSTEM.

HIZ001>004-211800-
KAUAI-NIIHAU-

CITY           SKY/WX    TMP DP  RH WIND       PRES   REMARKS
LIHUE APT      CLOUDY    76  32  20 NE14      30.05S
PORT ALLEN*      N/A     75 N/A N/A NE8         N/A
POIPU*           N/A     75 N/A N/A NE9G17      N/A
PRINCEVILLE*     N/A     73 N/A N/A SE5G10      N/A
KOKOLE POINT*  NOT AVBL
MOLOAA DAIRY*    N/A     73  70  88 E2G12       N/A
WAIMEA HTS*      N/A     75  70  83 NW3         N/A
PUU OPAE*        N/A     66  66 100 W1          N/A
PUU LUA*       NOT AVBL
MAKAHA RIDGE*    N/A     70  66  88 SE1         N/A
$$

HIZ005>011-211800-
OAHU-

CITY           SKY/WX    TMP DP  RH WIND       PRES   REMARKS
HONOLULU       PTCLDY    76  65  68 NE9       30.00S
KALAELOA       CLEAR     74  64  71 CALM      30.02R
KANEOHE MCB    MOCLDY    79  69  71 NE9       30.00R
WHEELER FIELD  FAIR      67  64  90 W3        30.02
BELLOWS*         N/A    N/A N/A N/A NE16        N/A
KAHUKU*          N/A    N/A N/A N/A NE7         N/A
WHEELER*         N/A    N/A N/A N/A N1          N/A
WAIANAE HARBOR   N/A    N/A N/A N/A NE7G15      N/A
DILLINGHAM*      N/A     86  86 100 W2          N/A  HX 112
KAHUKU TRN*      N/A     82  73  74 W8G17       N/A
KAWAILOA*        N/A     70  64  83 E10G20      N/A
KII*             N/A     77  68  73 E15G21      N/A
MAKUA RANGE*     N/A     75  63  64 W6G20       N/A
OAHU FOREST NW   N/A     70  63  78 E17G33      N/A
SCHOFIELD BRK*   N/A     72  68  88 MISG        N/A
SCHOFIELD S*   NOT AVBL
WAIANAE VLY*     N/A     84  73  70 VRB8G23     N/A  HX  91
KUAOKALA*        N/A     73  64  73 NE13G21     N/A
HONOULIUULI*   NOT AVBL
MOKUOLOE IS*   NOT AVBL
PALEHUA*         N/A     68  63  83 NE18G32     N/A
WAIAWA PHB*    NOT AVBL
$$

HIZ012>013-211800-
MOLOKAI-

CITY           SKY/WX    TMP DP  RH WIND       PRES   REMARKS
MOLOKAI AIRPT  CLEAR     74  69  85 NE13      30.02R
KALAUPAPA      NOT AVBL
MAKAPULAPAI*     N/A     77  68  73 E18G24      N/A
MOLOKAI 1*       N/A     64  59  82 NE2G16      N/A
PUU ALII*        N/A     60  60 100 N3G13       N/A
$$

HIZ016-211800-
KAHOOLAWE-

CITY           SKY/WX    TMP DP  RH WIND       PRES   REMARKS
KAHOOLAWE*     NOT AVBL
HAKIOAWA*        N/A     73  67  81 MISG      30.42S
HONOKANAIA*      N/A     77  66  69 VRB6G14   29.92R
KANELOA*         N/A     73  66  78 NE14G25   30.04S
KEALIALALO*    NOT AVBL
LUA MAKIKA*    NOT AVBL
$$

HIZ014>015-211800-
LANAI-

CITY           SKY/WX    TMP DP  RH WIND       PRES   REMARKS
LANAI CITY     CLOUDY    71  67  87 NE12      30.05S
LANAI 1*         N/A     72  66  83 NE20G29     N/A
$$

HIZ017>028-211800-
MAUI-

CITY           SKY/WX    TMP DP  RH WIND       PRES   REMARKS
KAHULUI        PTCLDY    75  70  84 NE12      30.00R
KAPALUA-W MAUI LGT RAIN  72  66  83 NE12      30.01R
HANA AIRPORT   NOT AVBL
HANA*            N/A     73 N/A N/A SW2         N/A
HALEAKALA SUMM   N/A     48  18  29 E16         N/A
MAALAEA BAY*     N/A     75 N/A N/A NE18G28     N/A
HALEAKALA*     NOT AVBL
KAUPO GAP*     NOT AVBL
KULA 1*          N/A     52  36  54 NE2         N/A
$$

HIZ023>026-211800-
BIG ISLAND OF HAWAII COAST AND LOWER SLOPES-

CITY           SKY/WX    TMP DP  RH WIND       PRES   REMARKS
KAILUA KONA    CLEAR     79  64  61 SE5       29.97R
HILO           RAIN      70  69  97 CALM      30.04R FOG
HONOKAA*         N/A     68 N/A N/A VRB1        N/A
KAWAIHAE MWT*    N/A     77 N/A N/A SE15G25     N/A
KAWAIHAE*        N/A     79 N/A N/A E15G31    29.96R
SOUTH POINT*     N/A     72 N/A N/A VRB13G20    N/A
UPOLU AIRPORT* NOT AVBL
KAMUELA*         N/A     66  61  82 E13       30.10R
HAKALAU*         N/A     45  43  93 W5          N/A
KALOKO-HONOKO*   N/A     75  66  73 E6        29.96R
PALI 2*          N/A     64  55  72 S17G25      N/A
KEALAKOMO*       N/A     75  63  64 N20G26      N/A
KAUPULEHU*       N/A     75  61  60 E5G12       N/A
KAPAPALA*        N/A     59  58  97 VRB3        N/A
LOWER KAHUKU*    N/A    N/A N/A N/A N2          N/A
PUHE CS*         N/A    N/A N/A N/A E15G26      N/A
PUHO CS*         N/A     72  59  62 E3          N/A
PTA KEAMUKU*     N/A     57  54  88 SE9         N/A
WAIKOLOA*        N/A     75  57  53 E7G13       N/A
$$

HIZ027>028-211800-
BIG ISLAND OF HAWAII INTERIOR AND SUMMMITS-

CITY           SKY/WX    TMP DP  RH WIND       PRES   REMARKS
BRADSHAW FIELD CLOUDY    47  33  58 SE3       30.29R
MK VISITOR CEN   N/A     59   9  13 W3          N/A
MAUNA KEA*       N/A     -8 N/A N/A NE6         N/A  WCI -21
MAUNA LOA*       N/A     43  -9  11 MISG        N/A
MAUNA LOA 1*   NOT AVBL
PTA KIPUKA*      N/A     48  43  81 NW6         N/A
PTA RANGE 17*    N/A     75  64  69 W8G21       N/A
PTA WEST*        N/A     79  72  78 SE8         N/A
NENE CABIN*      N/A    N/A N/A N/A NE6G13      N/A
AHUMOA*          N/A     57  44  61 SE2G8       N/A
PTA PORTABLE*  NOT AVBL
PUU MALI*        N/A    N/A N/A N/A E15G23      N/A
$$

HIC003-211800-
NORTHWEST ISLANDS-

CITY           SKY/WX    TMP DP  RH WIND       PRES   REMARKS
MIDWAY ISLAND  PTCLDY    77  72  83 SE6       30.11S
MIDWAY NOS*      N/A     77 N/A N/A MISG      30.10R
FRENCH FRIGATE NOT AVBL
$$

PHZ110>124-180-211800-
BUOY REPORTS

STATION/POSITION TIME  TEMP    WIND        PRES    WAVE   SWELL
                       AIR SEA DIR/SP/G            HT/PER HT/DIR
                 (UTC) (F)     (DEG/KT/KT) (MB)    (FT/S) (FT/D)
BUOY 51001       1720   78 80   80/ 16/ 19 1018.8
BUOY 51101       1650   76 80   40/ 14/ 17 1019.2R   8/ 8   7/ 80
BUOY 51100       NOT AVBL
BUOY 51002       1720   79 80   70/ 17/ 23 1014.0
BUOY 51003       1650   79 81   50/ 17/ 25 1014.4    8/ 9   5/ 60
BUOY 51004       1720   79 80   70/ 14/ 17 1014.2
WAIMEA BAY#      1702      77                N/A     7/13   3/350
MOKAPU POINT#    1704      80                N/A     8/ 9   3/360
LANAI#           NOT AVBL
BARBERS PT 2#    NOT AVBL
PAUWELA#         NOT AVBL
HILO#            1727      79                N/A     9/ 9   5/ 10
KANEOHE BAY#     NOT AVBL
KANEOHE BAY 2#   NOT AVBL
HANALEI#         1652      80                N/A     9/ 8   3/340
KAHULUI HARBOR   1706   76 78   10/  9/ 13 1016.4
HONOLULU HARBOR  1718   78 80   50/  3/  6 1017.0
PEARL HARBOR#    1700      80                N/A     2/ 7   2/150
KILO NALU        NOT AVBL
HILO HARBOR      1706   71 80  180/  4/  5 1016.4
MOKUOLOE         1636   78 78   80/  8/ 11 1016.6R
NAWILIWILI       1718   75      30/ 12/ 15 1017.1
WHOTS BUOY       NOT AVBL
BUOY 51028       NOT AVBL
$$

......................KEY........................................
  SKY/WX - SKY CONDITIONS/PRESENT WEATHER
  TMP    - TEMPERATURE IN FAHRENHEIT
  DWPT   - DEWPOINT IN FAHRENHEIT
  RH     - RELATIVE HUMIDITY IN PERCENT
  WIND   - DIRECTION AND SPEED /MPH FOR ISLANDS...KTS FOR BUOYS/
  PRES   - MEAN SEA LEVEL PRESSURE IN INCHES OF HG
  VSB    - VISIBILITY IN MILES
  HX     - HEAT INDEX
  WCI    - WIND CHILL INDEX
  VRB    - VARIABLE WIND DIRECTION
  N/A    - NOT AVAILABLE




USA.gov is the U.S. government's official web portal to all federal, state and local government web resources and services.